CW6062 Weather Reports


time (UTC)temp
C
wind
direction
speed
KPH
gust
KPH
rain 1hr
cm
rain 24hr
cm
rain mn
cm
humidity
%
barometer
mb
20260507144510 11 207 0.0 4.8 0.00 0.00 0.00 73 1015.8
20260507144004 11 165 0.0 4.8 0.00 0.00 0.00 74 1015.8
20260507143720 11 124 0.0 4.8 0.00 0.00 0.00 74 1015.6
20260507142952 11 194 0.0 1.6 0.00 0.00 0.00 74 1015.5
20260507142446 11 194 0.0 3.2 0.00 0.00 0.00 74 1015.4
20260507141939 11 194 0.0 3.2 0.00 0.00 0.00 75 1015.4
20260507141435 10 158 0.0 3.2 0.00 0.00 0.00 74 1015.3
20260507140933 10 147 1.6 3.2 0.00 0.00 0.00 74 1015.3
20260507140637 10 142 1.6 9.7 0.00 0.00 0.00 75 1015.3
20260507135912 10 208 0.0 9.7 0.00 0.00 0.00 74 1015.3
20260507135627 10 213 0.0 4.8 0.00 0.00 0.00 74 1015.2
20260507134900 10 148 0.0 1.6 0.00 0.00 0.00 74 1015.3
20260507134353 10 147 0.0 3.2 0.00 0.00 0.00 73 1015.2
20260507133848 10 147 0.0 3.2 0.00 0.00 0.00 73 1015.1
20260507133341 10 146 0.0 3.2 0.00 0.00 0.00 73 1015.0
20260507133056 10 150 0.0 4.8 0.00 0.00 0.00 73 1015.0
20260507132330 10 138 0.0 4.8 0.00 0.00 0.00 72 1014.9
20260507131823 10 151 0.0 3.2 0.00 0.00 0.00 73 1014.7
20260507131318 10 146 0.0 4.8 0.00 0.00 0.00 72 1014.9
20260507130812 10 121 0.0 4.8 0.00 0.00 0.00 72 1014.7
20260507130306 10 115 1.6 6.4 0.00 0.00 0.00 72 1014.6
20260507125800 10 117 0.0 6.4 0.00 0.00 0.00 71 1014.5
20260507125253 10 104 0.0 3.2 0.00 0.00 0.00 70 1014.6
20260507124748 10 104 0.0 3.2 0.00 0.00 0.00 70 1014.5
20260507124242 11 140 0.0 1.6 0.00 0.00 0.00 69 1014.5
20260507123230 11 152 1.6 6.4 0.00 0.00 0.00 68 1014.3
20260507122723 11 140 1.6 6.4 0.00 0.00 0.00 68 1014.3
20260507122218 11 145 1.6 9.7 0.00 0.00 0.00 67 1014.2
20260507121713 11 119 1.6 9.7 0.00 0.00 0.00 68 1014.2
20260507121427 11 143 1.6 6.4 0.00 0.00 0.00 67 1014.1
20260507120700 11 140 1.6 9.7 0.00 0.00 0.00 67 1014.0
20260507120413 11 104 1.6 4.8 0.00 0.00 0.00 67 1013.8
20260507115914 11 104 1.6 4.8 0.00 0.00 0.00 67 1013.8
20260507115142 11 113 0.0 3.2 0.00 0.00 0.00 66 1013.8
20260507114129 11 135 0.0 6.4 0.00 0.00 0.00 65 1013.8
20260507113623 11 132 0.0 6.4 0.00 0.00 0.00 65 1013.8
20260507112612 11 102 1.6 4.8 0.00 0.00 0.00 64 1013.7
20260507112106 11 140 1.6 3.2 0.00 0.00 0.00 63 1013.6
20260507111600 11 114 0.0 3.2 0.00 0.00 0.00 63 1013.3
20260507111054 12 128 1.6 3.2 0.00 0.00 0.00 63 1013.3
20260507110548 12 144 1.6 4.8 0.00 0.00 0.00 63 1013.2
20260507110305 12 147 1.6 4.8 0.00 0.00 0.00 63 1013.2
20260507105536 12 154 1.6 4.8 0.00 0.00 0.00 62 1013.1
20260507105029 12 128 1.6 6.4 0.00 0.00 0.00 62 1013.1
20260507104523 12 113 1.6 6.4 0.00 0.00 0.00 62 1013.1
20260507104018 12 117 1.6 6.4 0.00 0.00 0.00 62 1013.0
20260507103516 12 103 1.6 6.4 0.00 0.00 0.00 62 1013.0
20260507103001 12 109 1.6 6.4 0.00 0.00 0.00 61 1013.0
20260507102456 12 123 0.0 4.8 0.00 0.00 0.00 62 1012.8
20260507102212 12 137 0.0 3.2 0.00 0.00 0.00 62 1012.8
20260507100432 12 117 0.0 4.8 0.00 0.00 0.00 62 1012.6
20260507095926 13 150 0.0 3.2 0.00 0.00 0.00 63 1012.6
20260507095641 13 134 0.0 3.2 0.00 0.00 0.00 63 1012.6
20260507094914 13 127 0.0 3.2 0.00 0.00 0.00 63 1012.5
20260507094627 13 131 0.0 4.8 0.00 0.00 0.00 63 1012.3
20260507093902 13 119 1.6 4.8 0.00 0.00 0.00 62 1012.2
20260507093355 13 145 1.6 6.4 0.00 0.00 0.00 62 1012.1
20260507092849 13 146 1.6 6.4 0.00 0.00 0.00 63 1012.1
20260507092344 13 111 0.0 4.8 0.00 0.00 0.00 62 1012.0
20260507091838 13 128 0.0 4.8 0.00 0.00 0.00 63 1012.0
20260507091332 13 201 0.0 4.8 0.00 0.00 0.00 63 1011.8
20260507090826 13 144 0.0 3.2 0.00 0.00 0.00 62 1011.7
20260507090320 13 145 0.0 3.2 0.00 0.00 0.00 64 1011.6
20260507085814 13 139 0.0 3.2 0.00 0.00 0.00 63 1011.6
20260507085308 13 138 0.0 3.2 0.00 0.00 0.00 63 1011.6
20260507084802 13 117 0.0 4.8 0.00 0.00 0.00 63 1011.6
20260507084255 13 119 0.0 4.8 0.00 0.00 0.00 64 1011.6
20260507083750 13 112 0.0 4.8 0.00 0.00 0.00 64 1011.7
20260507083243 13 107 1.6 3.2 0.00 0.00 0.00 65 1011.6
20260507082737 13 107 0.0 3.2 0.00 0.00 0.00 63 1011.5
20260507082231 14 123 0.0 3.2 0.00 0.00 0.00 63 1011.6
20260507081954 14 207 0.0 3.2 0.00 0.00 0.00 62 1011.4
20260507081450 14 208 0.0 3.2 0.00 0.00 0.00 61 1011.4
20260507080947 15 209 0.0 1.6 0.00 0.00 0.00 61 1011.4
20260507080449 15 209 0.0 1.6 0.00 0.00 0.00 61 1011.3
20260507075730 15 129 0.0 1.6 0.00 0.00 0.00 61 1011.3
20260507075452 15 129 0.0 3.2 0.00 0.00 0.00 60 1011.2
20260507074729 15 129 0.0 3.2 0.00 0.00 0.00 60 1011.2
20260507074229 15 130 0.0 3.2 0.00 0.00 0.00 59 1011.2
20260507073950 15 146 0.0 3.2 0.00 0.00 0.00 59 1011.1
20260507073453 16 201 0.0 1.6 0.00 0.00 0.00 59 1011.1
20260507072729 16 198 0.0 1.6 0.00 0.00 0.00 59 1011.1
20260507072229 16 198 0.0 6.4 0.00 0.00 0.00 58 1010.9
20260507071946 16 196 0.0 6.4 0.00 0.00 0.00 58 1010.9
20260507071225 16 140 0.0 3.2 0.00 0.00 0.00 58 1010.9
20260507070949 16 140 0.0 3.2 0.00 0.00 0.00 59 1010.9
20260507070222 16 128 0.0 6.4 0.00 0.00 0.00 58 1010.8
20260507065722 16 121 1.6 6.4 0.00 0.00 0.00 57 1010.8
20260507065222 16 133 1.6 4.8 0.00 0.00 0.00 58 1010.7
20260507064938 16 131 1.6 4.8 0.00 0.00 0.00 57 1010.7
20260507064220 16 165 1.6 4.8 0.00 0.00 0.00 57 1010.7
20260507063721 16 139 1.6 3.2 0.00 0.00 0.00 58 1010.6
20260507063220 17 121 0.0 3.2 0.00 0.00 0.00 57 1010.6
20260507062720 17 123 1.6 3.2 0.00 0.00 0.00 57 1010.4
20260507062220 17 100 1.6 4.8 0.00 0.00 0.00 56 1010.4
20260507061720 17 117 1.6 4.8 0.00 0.00 0.00 56 1010.4
20260507061220 17 124 0.0 4.8 0.00 0.00 0.00 56 1010.3
20260507060720 17 150 0.0 3.2 0.00 0.00 0.00 57 1010.3
20260507060220 17 150 0.0 3.2 0.00 0.00 0.00 58 1010.3
20260507055945 17 138 0.0 3.2 0.00 0.00 0.00 58 1010.3
20260507055221 17 150 0.0 3.2 0.00 0.00 0.00 60 1010.4
20260507054720 17 148 0.0 3.2 0.00 0.00 0.00 60 1010.4
20260507054220 17 117 0.0 3.2 0.00 0.00 0.00 60 1010.4
20260507053720 17 127 0.0 3.2 0.00 0.00 0.00 60 1010.4
20260507053220 17 188 0.0 6.4 0.00 0.00 0.00 59 1010.7
20260507052720 17 141 1.6 8.0 0.00 0.00 0.00 59 1010.7
20260507052221 17 100 1.6 8.0 0.00 0.00 0.00 59 1010.7
20260507051720 17 90 1.6 3.2 0.00 0.00 0.00 60 1010.9
20260507051221 17 30 1.6 11.3 0.00 0.00 0.00 60 1011.0
20260507050720 17 92 1.6 11.3 0.00 0.00 0.00 61 1010.9
20260507050220 17 88 1.6 3.2 0.00 0.00 0.00 59 1011.0
20260507045718 18 43 0.0 4.8 0.00 0.00 0.00 58 1010.8
20260507045442 18 290 0.0 4.8 0.00 0.00 0.00 58 1010.7
20260507044715 18 171 0.0 3.2 0.00 0.00 0.00 58 1010.6
20260507044217 18 179 0.0 3.2 0.00 0.00 0.00 58 1010.6
20260507043714 18 179 0.0 3.2 0.00 0.00 0.00 57 1010.4
20260507042204 18 136 0.0 6.4 0.00 0.00 0.00 57 1010.6
20260507041658 18 165 0.0 1.6 0.00 0.00 0.00 56 1010.6
20260507041151 18 169 0.0 1.6 0.00 0.00 0.00 57 1010.4
20260507040645 18 184 0.0 12.9 0.00 0.00 0.00 56 1010.6
20260507040139 18 188 1.6 12.9 0.00 0.00 0.00 56 1010.4
20260507035633 18 196 1.6 8.0 0.00 0.00 0.00 56 1010.4
20260507035127 18 211 0.0 4.8 0.00 0.00 0.00 55 1010.6
20260507034622 18 163 0.0 1.6 0.00 0.00 0.00 55 1010.4
20260507034115 18 187 0.0 1.6 0.00 0.00 0.00 54 1010.6
20260507033829 19 160 0.0 0.0 0.00 0.00 0.00 53 1010.4
20260507033104 19 160 0.0 1.6 0.00 0.00 0.00 53 1010.3
20260507032052 19 160 0.0 3.2 0.00 0.00 0.00 52 1010.6
20260507031546 20 165 0.0 1.6 0.00 0.00 0.00 51 1010.4
20260507031256 20 175 0.0 1.6 0.00 0.00 0.00 50 1010.6
20260507030534 20 175 0.0 1.6 0.00 0.00 0.00 49 1010.4
20260507030027 20 175 0.0 1.6 0.00 0.00 0.00 49 1010.7
20260507025521 20 175 0.0 3.2 0.00 0.00 0.00 49 1010.7
20260507025016 20 175 0.0 3.2 0.00 0.00 0.00 50 1010.6
20260507024734 20 152 0.0 3.2 0.00 0.00 0.00 48 1010.3
20260507024225 20 142 0.0 3.2 0.00 0.00 0.00 48 1010.6
20260507023457 20 124 0.0 1.6 0.00 0.00 0.00 49 1010.7
20260507022951 20 124 0.0 1.6 0.00 0.00 0.00 49 1010.7
20260507022445 21 124 0.0 3.2 0.00 0.00 0.00 47 1010.8
20260507021939 21 144 0.0 3.2 0.00 0.00 0.00 47 1010.8
20260507021433 21 190 0.0 3.2 0.00 0.00 0.00 47 1010.7
20260507020928 21 140 0.0 3.2 0.00 0.00 0.00 48 1010.6
20260507020422 21 150 0.0 3.2 0.00 0.00 0.00 46 1010.8
20260507015916 21 161 0.0 3.2 0.00 0.00 0.00 46 1010.9
20260507015409 21 206 0.0 1.6 0.00 0.00 0.00 48 1010.8
20260507014903 21 190 1.6 4.8 0.00 0.00 0.00 47 1010.8
20260507014358 21 154 1.6 6.4 0.00 0.00 0.00 46 1010.8
20260507013852 21 163 0.0 6.4 0.00 0.00 0.00 45 1011.0
20260507013346 21 165 1.6 6.4 0.00 0.00 0.00 45 1011.0
20260507012840 21 234 1.6 6.4 0.00 0.00 0.00 45 1010.9
20260507012334 22 205 3.2 11.3 0.00 0.00 0.00 45 1010.6
20260507011827 22 211 4.8 16.1 0.00 0.00 0.00 45 1010.8
20260507011322 22 229 4.8 16.1 0.00 0.00 0.00 45 1011.0
20260507010816 22 225 4.8 16.1 0.00 0.00 0.00 45 1011.2
20260507010309 22 200 4.8 16.1 0.00 0.00 0.00 45 1011.0
20260507005803 22 227 4.8 16.1 0.00 0.00 0.00 47 1010.9
20260507005257 22 244 3.2 12.9 0.00 0.00 0.00 46 1011.1
20260507004751 22 239 1.6 8.0 0.00 0.00 0.00 48 1011.2
20260507004246 22 219 1.6 8.0 0.00 0.00 0.00 47 1011.3
20260507003740 22 176 1.6 6.4 0.00 0.00 0.00 47 1011.2
20260507003233 22 200 1.6 6.4 0.00 0.00 0.00 47 1011.3
20260507002727 22 180 3.2 11.3 0.00 0.00 0.00 47 1011.3
20260507002441 22 200 3.2 17.7 0.00 0.00 0.00 46 1011.4
20260507001715 22 194 4.8 17.7 0.00 0.00 0.00 46 1011.4
20260507001210 22 222 4.8 16.1 0.00 0.00 0.00 45 1011.3
20260507000158 22 207 6.4 17.7 0.00 0.00 0.00 45 1011.4
20260506235652 23 235 4.8 17.7 0.00 0.00 0.00 44 1011.4
20260506235145 23 199 3.2 12.9 0.00 0.00 0.00 45 1011.5
20260506234639 23 207 3.2 12.9 0.00 0.00 0.00 45 1011.4
20260506234133 23 186 3.2 11.3 0.00 0.00 0.00 46 1011.5
20260506233627 23 206 4.8 17.7 0.00 0.00 0.00 45 1011.5
20260506233121 23 204 4.8 17.7 0.00 0.00 0.00 46 1011.5
20260506232615 23 205 3.2 14.5 0.00 0.00 0.00 45 1011.5
20260506232109 23 232 4.8 16.1 0.00 0.00 0.00 45 1011.4
20260506231823 23 259 8.0 19.3 0.00 0.00 0.00 43 1011.5
20260506231317 23 250 8.0 22.5 0.00 0.00 0.00 44 1011.5
20260506230551 24 229 6.4 22.5 0.00 0.00 0.00 44 1011.6
20260506230046 25 222 6.4 20.9 0.00 0.00 0.00 44 1011.6
20260506225540 25 266 6.4 17.7 0.00 0.00 0.00 44 1011.5
20260506225033 24 257 4.8 14.5 0.00 0.00 0.00 45 1011.5
20260506224752 24 198 3.2 17.7 0.00 0.00 0.00 44 1011.7
20260506224034 23 211 8.0 20.9 0.00 0.00 0.00 45 1011.7
20260506223533 23 256 8.0 20.9 0.00 0.00 0.00 45 1011.8
20260506223033 23 205 6.4 20.9 0.00 0.00 0.00 44 1011.8
20260506222534 23 236 3.2 20.9 0.00 0.00 0.00 44 1011.8
20260506222031 23 225 1.6 11.3 0.00 0.00 0.00 45 1011.8
20260506221530 23 151 3.2 14.5 0.00 0.00 0.00 46 1012.0
20260506221029 23 182 4.8 17.7 0.00 0.00 0.00 45 1012.0
20260506220529 23 258 6.4 19.3 0.00 0.00 0.00 45 1012.2
20260506220029 23 256 6.4 19.3 0.00 0.00 0.00 43 1012.3
20260506215751 24 206 6.4 17.7 0.00 0.00 0.00 44 1012.3
20260506215029 24 184 3.2 14.5 0.00 0.00 0.00 43 1012.2
20260506214751 24 236 3.2 19.3 0.00 0.00 0.00 46 1012.4
20260506214256 23 210 3.2 19.3 0.00 0.00 0.00 45 1012.6
20260506213529 23 173 3.2 14.5 0.00 0.00 0.00 44 1012.5
20260506212523 23 195 3.2 12.9 0.00 0.00 0.00 45 1012.6
20260506212023 23 215 3.2 12.9 0.00 0.00 0.00 46 1012.8
20260506211523 22 248 1.6 11.3 0.00 0.00 0.00 45 1012.7
20260506211023 22 223 1.6 11.3 0.00 0.00 0.00 44 1012.8
20260506210523 22 159 4.8 22.5 0.00 0.00 0.00 44 1013.0
20260506210023 22 211 6.4 22.5 0.00 0.00 0.00 45 1013.1
20260506205750 22 239 8.0 22.5 0.00 0.00 0.00 45 1013.0
20260506205023 22 223 6.4 22.5 0.00 0.00 0.00 44 1013.2
20260506204523 22 256 4.8 12.9 0.00 0.00 0.00 44 1013.2
20260506204019 22 254 4.8 14.5 0.00 0.00 0.00 44 1013.3
20260506203519 22 225 6.4 14.5 0.00 0.00 0.00 43 1013.6
20260506203249 21 254 6.4 16.1 0.00 0.00 0.00 43 1013.3
20260506202519 21 193 8.0 17.7 0.00 0.00 0.00 44 1013.6
20260506202019 21 231 6.4 17.7 0.00 0.00 0.00 42 1013.6
20260506201744 22 231 4.8 17.7 0.00 0.00 0.00 41 1013.5
20260506201019 22 194 3.2 17.7 0.00 0.00 0.00 42 1013.5
20260506200519 22 224 3.2 16.1 0.00 0.00 0.00 42 1013.5
20260506200019 22 217 4.8 20.9 0.00 0.00 0.00 42 1013.5
20260506195519 21 228 4.8 22.5 0.00 0.00 0.00 43 1013.5
20260506195019 21 231 3.2 22.5 0.00 0.00 0.00 43 1013.5
20260506194519 21 252 4.8 14.5 0.00 0.00 0.00 41 1013.6
20260506194238 21 158 6.4 14.5 0.00 0.00 0.00 44 1013.5
20260506193517 21 286 6.4 20.9 0.00 0.00 0.00 41 1013.7
20260506193017 21 266 4.8 20.9 0.00 0.00 0.00 42 1013.8
20260506192741 21 250 4.8 12.9 0.00 0.00 0.00 46 1013.8
20260506192016 21 198 4.8 12.9 0.00 0.00 0.00 41 1013.9
20260506191517 21 260 3.2 12.9 0.00 0.00 0.00 41 1014.0
20260506191016 21 264 3.2 9.7 0.00 0.00 0.00 44 1014.0
20260506190513 20 236 3.2 8.0 0.00 0.00 0.00 43 1014.1
20260506190013 20 226 3.2 14.5 0.00 0.00 0.00 45 1014.2
20260506185733 19 157 3.2 14.5 0.00 0.00 0.00 47 1014.3
20260506185011 19 263 3.2 12.9 0.00 0.00 0.00 45 1014.5
20260506184509 18 199 3.2 12.9 0.00 0.00 0.00 46 1014.5
20260506184230 18 215 3.2 8.0 0.00 0.00 0.00 44 1014.6
20260506183227 18 221 3.2 14.5 0.00 0.00 0.00 43 1014.5
20260506182507 18 188 4.8 17.7 0.00 0.00 0.00 44 1014.6
20260506182006 18 234 6.4 17.7 0.00 0.00 0.00 43 1014.5
20260506181505 18 210 4.8 16.1 0.00 0.00 0.00 42 1014.5
20260506181005 18 247 3.2 9.7 0.00 0.00 0.00 45 1014.6
20260506180505 18 218 1.6 9.7 0.00 0.00 0.00 44 1014.5
20260506180005 18 224 3.2 12.9 0.00 0.00 0.00 44 1014.6
20260506175505 17 205 4.8 12.9 0.00 0.00 0.00 44 1014.6
20260506175222 17 225 3.2 12.9 0.00 0.00 0.00 43 1014.7
20260506174503 17 198 1.6 12.9 0.00 0.00 0.00 40 1014.9
20260506174004 17 202 1.6 9.7 0.00 0.00 0.00 41 1014.9
20260506173457 17 141 1.6 6.4 0.00 0.00 0.00 39 1014.9
20260506172951 17 211 3.2 9.7 0.00 0.00 0.00 44 1014.9
20260506172446 17 271 1.6 8.0 0.00 0.00 0.00 41 1015.1
20260506171939 16 251 1.6 6.4 0.00 0.00 0.00 43 1015.2
20260506171434 16 203 1.6 6.4 0.00 0.00 0.00 50 1015.2
20260506170928 16 282 0.0 1.6 0.00 0.00 0.00 48 1015.2
20260506170422 16 277 0.0 1.6 0.00 0.00 0.00 49 1015.3
20260506170142 16 266 0.0 1.6 0.00 0.00 0.00 48 1015.4
20260506165410 15 213 0.0 1.6 0.00 0.00 0.00 50 1015.5
20260506164904 15 296 0.0 3.2 0.00 0.00 0.00 53 1015.5
20260506164358 15 308 0.0 3.2 0.00 0.00 0.00 52 1015.6
20260506163852 15 293 0.0 3.2 0.00 0.00 0.00 54 1015.6
20260506163346 14 293 0.0 3.2 0.00 0.00 0.00 54 1015.6
20260506162840 14 289 0.0 3.2 0.00 0.00 0.00 56 1015.6
20260506161828 13 255 1.6 4.8 0.00 0.00 0.00 53 1015.5
20260506161322 13 229 0.0 4.8 0.00 0.00 0.00 53 1015.5
20260506161034 13 241 0.0 3.2 0.00 0.00 0.00 52 1015.6
20260506160309 13 266 0.0 4.8 0.00 0.00 0.00 51 1015.7
20260506155803 13 29 1.6 4.8 0.00 0.00 0.00 51 1015.8
20260506155258 13 60 0.0 3.2 0.00 0.00 0.00 51 1015.7
20260506154246 12 24 0.0 4.8 0.00 0.00 0.00 54 1015.7
20260506153740 12 244 0.0 1.6 0.00 0.00 0.00 57 1015.7
20260506153455 11 253 0.0 1.6 0.00 0.00 0.00 61 1015.8
20260506152727 11 26 0.0 1.6 0.00 0.00 0.00 63 1015.8
20260506152222 11 74 0.0 1.6 0.00 0.00 0.00 63 1015.9
20260506151716 11 80 0.0 0.0 0.00 0.00 0.00 65 1015.8
20260506150704 9 80 0.0 0.0 0.00 0.00 0.00 67 1015.9
20260506150157 9 79 0.0 0.0 0.00 0.00 0.00 67 1015.9
20260506145651 8 79 0.0 0.0 0.00 0.00 0.00 65 1015.9
20260506145145 8 79 0.0 0.0 0.00 0.00 0.00 68 1015.9
20260506144857 8 79 0.0 0.0 0.00 0.00 0.00 67 1016.0